timestamp,wind_dir_avg,wind_spd_avg,wind_spd_max_dir,wind_spd_gust,battery_voltage,lat,long
2021-03-31 00:04:01+00:00,328.0,9.37,332.0,10.75,12.57,47.59359,-54.27349
2021-03-31 00:14:01+00:00,327.0,9.67,331.0,11.79,12.49,47.59359,-54.27349
2021-03-31 00:24:01+00:00,330.0,9.08,324.0,10.54,12.49,47.59359,-54.27349
2021-03-31 00:34:01+00:00,326.0,9.7,322.0,11.17,12.49,47.59359,-54.27349
2021-03-31 00:44:01+00:00,323.0,9.48,320.0,11.4,12.49,47.59359,-54.27349
2021-03-31 00:54:01+00:00,327.0,9.62,335.0,10.96,12.49,47.59359,-54.27349
2021-03-31 01:04:01+00:00,330.0,10.21,327.0,11.5,12.49,47.59359,-54.27349
2021-03-31 01:14:01+00:00,327.0,9.88,326.0,12.15,12.49,47.59359,-54.27349
2021-03-31 01:24:01+00:00,337.0,9.48,340.0,10.88,12.49,47.59359,-54.27349
2021-03-31 01:34:01+00:00,332.0,9.68,324.0,11.38,12.49,47.59359,-54.27349
2021-03-31 01:44:01+00:00,333.0,11.03,328.0,12.46,12.49,47.59359,-54.27349
2021-03-31 01:54:01+00:00,339.0,9.8,337.0,11.1,12.49,47.59359,-54.27349
2021-03-31 02:04:01+00:00,341.0,10.87,340.0,12.05,12.49,47.59359,-54.27349
2021-03-31 02:14:01+00:00,345.0,10.03,345.0,11.94,12.41,47.59359,-54.27349
2021-03-31 02:24:01+00:00,338.0,9.53,343.0,11.49,12.41,47.59359,-54.27349
2021-03-31 02:34:01+00:00,338.0,9.4,343.0,11.15,12.41,47.59359,-54.27349
2021-03-31 02:44:01+00:00,338.0,9.09,337.0,10.33,12.41,47.59359,-54.27349
2021-03-31 02:54:01+00:00,339.0,9.58,340.0,10.42,12.41,47.59359,-54.27349
2021-03-31 03:04:01+00:00,343.0,10.97,343.0,12.84,12.41,47.59359,-54.27349
2021-03-31 03:14:01+00:00,343.0,9.56,342.0,11.4,12.41,47.59359,-54.27349
2021-03-31 03:24:01+00:00,343.0,8.75,344.0,10.91,12.41,47.59359,-54.27349
2021-03-31 03:34:01+00:00,347.0,9.12,338.0,10.62,12.41,47.59359,-54.27349
2021-03-31 03:44:01+00:00,342.0,9.12,343.0,10.86,12.41,47.59359,-54.27349
2021-03-31 03:54:01+00:00,348.0,9.24,338.0,10.56,12.41,47.59359,-54.27349
2021-03-31 04:04:01+00:00,353.0,8.76,356.0,9.5,12.41,47.59359,-54.27349
2021-03-31 04:14:01+00:00,359.0,9.32,1.0,11.46,12.41,47.59359,-54.27349
2021-03-31 04:24:01+00:00,350.0,8.96,349.0,10.3,12.41,47.59359,-54.27349
2021-03-31 04:34:01+00:00,359.0,9.54,356.0,10.36,12.41,47.59359,-54.27349
2021-03-31 04:44:01+00:00,355.0,9.17,1.0,10.48,12.41,47.59359,-54.27349
2021-03-31 04:54:01+00:00,355.0,8.98,344.0,11.12,12.41,47.59359,-54.27349
2021-03-31 05:04:01+00:00,350.0,9.4,337.0,10.64,12.41,47.59359,-54.27349
2021-03-31 05:14:01+00:00,357.0,8.66,355.0,9.97,12.41,47.59359,-54.27349
2021-03-31 05:24:01+00:00,355.0,8.64,346.0,9.69,12.41,47.59359,-54.27349
2021-03-31 05:34:01+00:00,343.0,9.39,340.0,10.39,12.41,47.59359,-54.27349
2021-03-31 05:44:01+00:00,352.0,9.36,354.0,10.4,12.41,47.59359,-54.27349
2021-03-31 05:54:01+00:00,353.0,8.1,338.0,9.96,12.41,47.59359,-54.27349
2021-03-31 06:04:01+00:00,358.0,9.1,357.0,10.1,12.41,47.59359,-54.27349
2021-03-31 06:14:01+00:00,350.0,8.27,354.0,9.46,12.33,47.59359,-54.27349
2021-03-31 06:24:01+00:00,341.0,8.14,340.0,9.05,12.33,47.59359,-54.27349
2021-03-31 06:34:01+00:00,336.0,6.44,335.0,7.26,12.33,47.59359,-54.27349
2021-03-31 06:44:01+00:00,334.0,6.42,337.0,8.17,12.33,47.59359,-54.27349
2021-03-31 06:54:01+00:00,346.0,6.82,341.0,7.6,12.33,47.59359,-54.27349
2021-03-31 07:04:01+00:00,351.0,6.44,349.0,7.31,12.33,47.59359,-54.27349
2021-03-31 07:14:01+00:00,345.0,6.23,344.0,7.14,12.33,47.59359,-54.27349
2021-03-31 07:24:01+00:00,345.0,6.64,336.0,7.96,12.33,47.59359,-54.27349
2021-03-31 07:34:01+00:00,14.0,6.17,42.0,8.62,12.33,47.59359,-54.27349
2021-03-31 07:44:01+00:00,4.0,6.8,357.0,8.21,12.33,47.59359,-54.27349
2021-03-31 07:54:01+00:00,332.0,6.01,335.0,7.4,12.33,47.59359,-54.27349
2021-03-31 08:04:01+00:00,341.0,6.41,338.0,7.14,12.33,47.59359,-54.27349
2021-03-31 08:14:01+00:00,333.0,5.69,333.0,6.96,12.33,47.59359,-54.27349
2021-03-31 08:24:01+00:00,346.0,4.76,346.0,5.41,12.33,47.59359,-54.27349
2021-03-31 08:34:01+00:00,330.0,5.47,329.0,6.27,12.33,47.59359,-54.27349
2021-03-31 08:44:01+00:00,344.0,4.6,340.0,5.59,12.33,47.59359,-54.27349
2021-03-31 08:54:01+00:00,344.0,4.24,345.0,5.07,12.33,47.59359,-54.27349
2021-03-31 09:04:01+00:00,339.0,3.84,352.0,5.0,12.33,47.59359,-54.27349
2021-03-31 09:14:01+00:00,334.0,5.37,334.0,6.29,12.25,47.59359,-54.27349
2021-03-31 09:24:01+00:00,328.0,3.73,332.0,4.58,12.25,47.59359,-54.27349
2021-03-31 09:34:01+00:00,334.0,3.46,343.0,4.33,12.25,47.59359,-54.27349
2021-03-31 09:44:01+00:00,315.0,4.1,308.0,5.99,12.25,47.59359,-54.27349
2021-03-31 09:54:01+00:00,309.0,4.84,310.0,5.95,12.25,47.59359,-54.27349
2021-03-31 10:04:01+00:00,315.0,5.31,312.0,6.13,12.25,47.59359,-54.27349
2021-03-31 10:14:01+00:00,331.0,4.89,324.0,5.74,12.81,47.59359,-54.27349
2021-03-31 10:24:01+00:00,1.0,2.49,1.0,3.34,12.81,47.59359,-54.27349
2021-03-31 10:34:01+00:00,354.0,1.64,356.0,1.96,12.81,47.59359,-54.27349
2021-03-31 10:44:01+00:00,354.0,1.96,357.0,2.47,12.81,47.59359,-54.27349
2021-03-31 10:54:01+00:00,53.0,1.9,82.0,5.58,12.81,47.59359,-54.27349
2021-03-31 11:04:01+00:00,83.0,5.44,90.0,6.22,12.81,47.59359,-54.27349
2021-03-31 11:14:01+00:00,66.0,5.1,71.0,6.77,13.68,47.59359,-54.27349
2021-03-31 11:24:01+00:00,68.0,5.74,69.0,6.52,13.68,47.59359,-54.27349
2021-03-31 11:34:01+00:00,31.0,1.29,67.0,2.31,13.68,47.59359,-54.27349
2021-03-31 11:44:01+00:00,25.0,2.34,58.0,4.26,13.68,47.59359,-54.27349
2021-03-31 11:54:01+00:00,339.0,2.09,343.0,2.97,13.68,47.59359,-54.27349
2021-03-31 12:04:01+00:00,33.0,1.24,63.0,2.73,13.68,47.59359,-54.27349
2021-03-31 12:14:01+00:00,54.0,4.79,63.0,6.72,13.92,47.59359,-54.27349
2021-03-31 12:24:01+00:00,3.0,3.82,1.0,4.81,13.92,47.59359,-54.27349
2021-03-31 12:34:01+00:00,20.0,4.91,37.0,6.37,13.92,47.59359,-54.27349
2021-03-31 12:44:01+00:00,24.0,4.98,36.0,5.82,13.92,47.59359,-54.27349
2021-03-31 12:54:01+00:00,15.0,3.51,21.0,4.02,13.92,47.59359,-54.27349
2021-03-31 13:04:01+00:00,16.0,3.26,10.0,3.8,13.92,47.59359,-54.27349
2021-03-31 13:14:01+00:00,71.0,5.16,73.0,6.59,13.76,47.59359,-54.27349
2021-03-31 13:24:01+00:00,42.0,1.57,29.0,2.72,13.76,47.59359,-54.27349
2021-03-31 13:34:01+00:00,287.0,0.29,265.0,0.58,13.76,47.59359,-54.27349
2021-03-31 13:44:01+00:00,22.0,1.06,26.0,1.46,13.76,47.59359,-54.27349
2021-03-31 13:54:01+00:00,132.0,1.9,116.0,2.54,13.76,47.59359,-54.27349
2021-03-31 14:04:01+00:00,170.0,2.97,148.0,3.61,13.76,47.59359,-54.27349
2021-03-31 14:14:01+00:00,163.0,2.11,164.0,2.41,14.32,47.59359,-54.27349
2021-03-31 14:24:01+00:00,137.0,3.72,126.0,4.97,14.32,47.59359,-54.27349
2021-03-31 14:34:01+00:00,137.0,2.9,141.0,3.24,14.32,47.59359,-54.27349
2021-03-31 14:44:01+00:00,139.0,3.04,133.0,3.44,14.32,47.59359,-54.27349
2021-03-31 14:54:01+00:00,146.0,1.94,142.0,2.39,14.32,47.59359,-54.27349
2021-03-31 15:04:01+00:00,149.0,1.34,160.0,1.9,14.32,47.59359,-54.27349
2021-03-31 15:14:01+00:00,135.0,1.34,140.0,1.69,14.32,47.59359,-54.27349
2021-03-31 15:24:01+00:00,195.0,1.53,205.0,1.81,14.32,47.59359,-54.27349
2021-03-31 15:34:01+00:00,228.0,1.45,239.0,1.92,14.32,47.59359,-54.27349
2021-03-31 15:44:01+00:00,235.0,2.28,238.0,2.57,14.32,47.59359,-54.27349
2021-03-31 15:54:01+00:00,232.0,3.18,235.0,3.78,14.32,47.59359,-54.27349
2021-03-31 16:04:01+00:00,214.0,3.25,215.0,3.76,14.32,47.59359,-54.27349
2021-03-31 16:14:01+00:00,191.0,2.45,189.0,2.74,14.32,47.59359,-54.27349
2021-03-31 16:24:01+00:00,184.0,2.48,180.0,3.08,14.32,47.59359,-54.27349
2021-03-31 16:34:01+00:00,207.0,2.33,206.0,2.53,14.32,47.59359,-54.27349
2021-03-31 16:44:01+00:00,225.0,2.45,229.0,2.8,14.32,47.59359,-54.27349
2021-03-31 16:54:01+00:00,231.0,2.48,238.0,2.93,14.32,47.59359,-54.27349
2021-03-31 17:04:01+00:00,213.0,2.52,216.0,2.83,14.32,47.59359,-54.27349
2021-03-31 17:14:01+00:00,224.0,2.44,224.0,2.73,13.68,47.59359,-54.27349
2021-03-31 17:24:01+00:00,222.0,2.17,233.0,2.64,13.68,47.59359,-54.27349
2021-03-31 17:34:01+00:00,218.0,2.0,230.0,2.43,13.68,47.59359,-54.27349
2021-03-31 17:44:01+00:00,241.0,2.23,237.0,2.54,13.68,47.59359,-54.27349
2021-03-31 17:54:01+00:00,242.0,1.97,239.0,2.26,13.68,47.59359,-54.27349
2021-03-31 18:04:01+00:00,208.0,2.08,214.0,2.4,13.68,47.59359,-54.27349
2021-03-31 18:14:01+00:00,213.0,3.52,220.0,3.82,14.4,47.59359,-54.27349
2021-03-31 18:24:01+00:00,218.0,3.1,219.0,3.37,14.4,47.59359,-54.27349
2021-03-31 18:34:01+00:00,213.0,3.77,219.0,4.41,14.4,47.59359,-54.27349
2021-03-31 18:44:01+00:00,196.0,4.12,198.0,4.47,14.4,47.59359,-54.27349
2021-03-31 18:54:01+00:00,206.0,4.28,214.0,4.91,14.4,47.59359,-54.27349
2021-03-31 19:04:01+00:00,208.0,5.12,212.0,5.66,14.4,47.59359,-54.27349
2021-03-31 19:14:01+00:00,190.0,4.66,195.0,5.25,13.76,47.59359,-54.27349
2021-03-31 19:24:01+00:00,204.0,4.56,206.0,5.14,13.76,47.59359,-54.27349
2021-03-31 19:34:01+00:00,203.0,4.97,207.0,5.47,13.76,47.59359,-54.27349
2021-03-31 19:44:01+00:00,196.0,4.5,197.0,4.88,13.76,47.59359,-54.27349
2021-03-31 19:54:01+00:00,207.0,5.39,206.0,6.01,13.76,47.59359,-54.27349
2021-03-31 20:04:01+00:00,212.0,5.84,204.0,7.02,13.76,47.59359,-54.27349
2021-03-31 20:14:01+00:00,215.0,5.16,209.0,6.48,13.92,47.59359,-54.27349
2021-03-31 20:24:01+00:00,214.0,6.35,215.0,6.77,13.92,47.59359,-54.27349
2021-03-31 20:34:01+00:00,212.0,5.82,209.0,6.64,13.92,47.59359,-54.27349
2021-03-31 20:44:01+00:00,208.0,5.91,206.0,7.78,13.92,47.59359,-54.27349
2021-03-31 20:54:01+00:00,204.0,5.83,206.0,6.43,13.92,47.59359,-54.27349
2021-03-31 21:04:01+00:00,206.0,5.78,211.0,6.44,13.92,47.59359,-54.27349
2021-03-31 21:14:01+00:00,204.0,5.73,205.0,6.37,13.6,47.59359,-54.27349
2021-03-31 21:24:01+00:00,202.0,5.88,203.0,6.41,13.6,47.59359,-54.27349
2021-03-31 21:34:01+00:00,205.0,5.81,206.0,6.41,13.6,47.59359,-54.27349
2021-03-31 21:44:01+00:00,209.0,6.08,212.0,6.68,13.6,47.59359,-54.27349
2021-03-31 21:54:01+00:00,206.0,6.01,209.0,6.71,13.6,47.59359,-54.27349
2021-03-31 22:04:01+00:00,214.0,6.73,216.0,7.44,13.6,47.59359,-54.27349
2021-03-31 22:14:01+00:00,212.0,6.78,211.0,7.38,13.05,47.59359,-54.27349
2021-03-31 22:24:01+00:00,219.0,6.24,221.0,6.95,13.05,47.59359,-54.27349
2021-03-31 22:34:01+00:00,217.0,6.85,217.0,7.41,13.05,47.59359,-54.27349
2021-03-31 22:44:01+00:00,217.0,6.09,216.0,6.67,13.05,47.59359,-54.27349
2021-03-31 22:54:01+00:00,216.0,5.45,218.0,6.28,13.05,47.59359,-54.27349
2021-03-31 23:04:01+00:00,223.0,5.2,222.0,5.75,13.05,47.59359,-54.27349
2021-03-31 23:14:01+00:00,220.0,6.05,218.0,6.58,12.57,47.59359,-54.27349
2021-03-31 23:24:01+00:00,223.0,5.28,221.0,6.3,12.57,47.59359,-54.27349
2021-03-31 23:34:01+00:00,228.0,5.24,229.0,5.86,12.57,47.59359,-54.27349
2021-03-31 23:44:01+00:00,217.0,4.63,219.0,5.14,12.57,47.59359,-54.27349
2021-03-31 23:54:01+00:00,227.0,3.95,231.0,4.56,12.57,47.59359,-54.27349
